Location: Bastogne Gables
(35.1554°N, 78.9900°W)
Time: 03:40:16
(UTC+00:00)

Cosmos 1553 Rocket - Pass Details

Date: 29 October 2020
Orbit: 940 x 1009 km, 82.9° (Epoch: 26 November)

Event Time Altitude Azimuth Distance (km) Brightness Sun altitude
Rises 22:51:34 0° 171° (S) 3,715 7.1 -6.3°
Reaches altitude 10° 22:54:09 10° 167° (SSE) 2,764 6.4 -6.8°
Maximum altitude 23:00:18 54° 91° (E) 1,196 4.2 -8.1°
Drops below altitude 10° 23:06:23 10° 17° (NNE) 2,739 6.1 -9.3°
Sets 23:08:56 0° 12° (NNE) 3,680 6.8 -9.8°
